STARLINK-32209 (60590 NORAD) Tracking and Keplerian Element Data

This shows tracking and keplerian element data for the satellite.

Feedback or suggestion? Click here.




ElementValue
Catalog60590
NameSTARLINK-32209
Epoch Orbit951
Epoch Day286.84788216
Epoch Year2024
RAAN169.7905
Inclination53.1593
Eccentricity0.0001032
Argument of Perigee141.2791
Mean Anonmoly218.8288
Mean Motion15.39699893
Decay Rate0.00069531
L11 60590U 24150H 24286.84788216 .00069531 00000+0 17279-2 0 9999
L22 60590 53.1593 169.7905 0001032 141.2791 218.8288 15.39699893 9510



Live tracking and technical data element details for STARLINK-32209 (NORAD 60590). STARLINK-32209 can be tracked NOW for your location showing map with azimuth and elevation plus other details from your city location.







IsCatalogInMostPopularTable: catalog: 60590, numindb: 8
Update: records affected: 1



GetName: 60590 STARLINK-32209

Hit Count: updated at: Wed, 04 Dec 2024 18:19:32 GMT